Regional Weather Roundup
Issued by NWS

Home | Current Version | Previous Version | Graphics & Text | Print | Product List | Glossary On
Versions: 1 2 3 4 5 6 7 8 9 10 11 12 13 14 15 16 17 18 19 20 21 22 23 24 25 26 27 28 29 30 31 32 33 34 35 36 37 38 39 40 41 42 43 44 45 46 47 48 49 50
000
ASUS43 KMKX 280621
RWRWI

WISCONSIN REGIONAL WEATHER ROUNDUP
NATIONAL WEATHER SERVICE MILWAUKEE/SULLIVAN WI
100 AM CDT FRI AUG 28 2015

NOTE: "FAIR" INDICATES FEW OR NO CLOUDS BELOW 12,000 FEET WITH NO
SIGNIFICANT WEATHER AND/OR OBSTRUCTIONS TO VISIBILITY.

WIZ001-002-006>008-014>016-023>028-280700-
NORTHWEST WISCONSIN

CITY           SKY/WX    TMP DP  RH WIND       PRES   REMARKS
SUPERIOR ARPT  CLOUDY    56  51  85 CALM      29.99S
6HR MIN TEMP:  54; 6HR MAX TEMP:  58;

ASHLAND        MOCLDY    56  56 100 CALM      30.00S
6HR MIN TEMP:  55; 6HR MAX TEMP:  65;

HAYWARD        MOCLDY    62  57  83 S5        30.01F
6HR MIN TEMP:  62; 6HR MAX TEMP:  68;

SIREN          FAIR      62  59  89 S6        30.00S
6HR MIN TEMP:  62; 6HR MAX TEMP:  70;

CUMBERLAND     FAIR      55  54  94 S6        30.03R
RICE LAKE      FAIR      58  56  92 S5        30.05R
6HR MIN TEMP:  58; 6HR MAX TEMP:  68;

CHETEK         FAIR     N/A N/A N/A E6        30.04R
LADYSMITH      FAIR      61  58  89 SE5       30.06R
6HR MIN TEMP:  61; 6HR MAX TEMP:  69;

EAU CLAIRE     FAIR      64  59  83 S8        30.03R
6HR MIN TEMP:  62; 6HR MAX TEMP:  71;

MENOMONIE      FAIR      60  59  96 E3        30.03F
6HR MIN TEMP:  60; 6HR MAX TEMP:  70;

NEW RICHMOND   FAIR      60  58  94 CALM      30.03S
6HR MIN TEMP:  60; 6HR MAX TEMP:  70;

OSCEOLA        FAIR      60  60 100 SE3       30.04S
6HR MIN TEMP:  59; 6HR MAX TEMP:  70;

$$

WIZ003>005-009-010-017-018-280700-
NORTH CENTRAL WISCONSIN

CITY           SKY/WX    TMP DP  RH WIND       PRES   REMARKS
MANITOWISH WTR MOCLDY    59  58  96 S5        30.05S
6HR MIN TEMP:  56; 6HR MAX TEMP:  67;

ARBOR VITAE    FAIR      59  57  91 S3        30.05F
6HR MIN TEMP:  59; 6HR MAX TEMP:  68;

WOODRUFF       FAIR      59  57  91 S3        30.05F
6HR MIN TEMP:  59; 6HR MAX TEMP:  68;

RHINELANDER    FAIR      56  54  93 CALM      30.08S
6HR MIN TEMP:  56; 6HR MAX TEMP:  68;

EAGLE RIVER    FAIR      57  56  95 CALM      30.06S
6HR MIN TEMP:  53; 6HR MAX TEMP:  67;

LAND O LAKES   CLOUDY    60  56  88 CALM      30.06F
6HR MIN TEMP:  54; 6HR MAX TEMP:  68; 6HR PCP:  0.01;

PHILLIPS       CLOUDY    60  57  89 S5        30.04F
6HR MIN TEMP:  59; 6HR MAX TEMP:  68;

TOMAHAWK       FAIR      55  54  97 CALM      30.07S
6HR MIN TEMP:  55; 6HR MAX TEMP:  66;

MEDFORD        FAIR      59  57  94 S5        30.06F
6HR MIN TEMP:  57; 6HR MAX TEMP:  67;

MERRILL        FAIR      52  52 100 CALM      30.07F
6HR MIN TEMP:  53; 6HR MAX TEMP:  69;

$$

WIZ029-030-035-036-043>047-280700-
CENTRAL WISCONSIN

CITY           SKY/WX    TMP DP  RH WIND       PRES   REMARKS
WAUSAU         FAIR      62  58  86 S6        30.06F
6HR MIN TEMP:  59; 6HR MAX TEMP:  70;

MOSINEE        FAIR      57  55  94 S5        30.08F
MARSHFIELD     FAIR      59  54  83 S5        30.07S
6HR MIN TEMP:  59; 6HR MAX TEMP:  69;

STEVENS POINT  FAIR      58  55  91 CALM      30.08F
6HR MIN TEMP:  56; 6HR MAX TEMP:  67;

WAUPACA        FAIR      61  59  94 CALM      30.10S
6HR MIN TEMP:  60; 6HR MAX TEMP:  71;

WAUTOMA        FAIR      56  56 100 CALM      30.10S
6HR MIN TEMP:  56; 6HR MAX TEMP:  73;

WISC RAPIDS    LGT RAIN  63  56  78 S6        30.08F
6HR MIN TEMP:  60; 6HR MAX TEMP:  71; 6HR PCP: TRACE;

CAMP DOUGLAS   MOCLDY    59  59 100 S6        30.08R
6HR MIN TEMP:  56; 6HR MAX TEMP:  71;

$$

WIZ011>013-019>022-031-037>040-048>050-280700-
NORTHEAST WISCONSIN

CITY           SKY/WX    TMP DP  RH WIND       PRES   REMARKS
ANTIGO         FAIR      55  54  97 SW5       30.09S
SHAWANO        FAIR      61  57  85 CALM      30.09R
6HR MIN TEMP:  61; 6HR MAX TEMP:  71;

OCONTO         FAIR      56  56 100 CALM      30.07S
6HR MIN TEMP:  55; 6HR MAX TEMP:  66;

STURGEON BAY   FAIR      59  52  77 S12       30.11S
6HR MIN TEMP:  57; 6HR MAX TEMP:  63;

GREEN BAY      FAIR      57  55  93 S6        30.10R
6HR MIN TEMP:  57; 6HR MAX TEMP:  68;

MANITOWOC      FAIR      61  53  75 MISG      30.12R
6HR MIN TEMP:  55; 6HR MAX TEMP:  63;

APPLETON       MOCLDY    61  55  82 S8        30.09R
CLINTONVILLE   FAIR      55  54  94 CALM      30.09R
OSHKOSH        MOCLDY    60  55  83 S8        30.10R
6HR MIN TEMP:  57; 6HR MAX TEMP:  67;

$$

WIZ032>034-041-042-053>061-280700-
SOUTHWEST WISCONSIN

CITY           SKY/WX    TMP DP  RH WIND       PRES   REMARKS
LA CROSSE      FAIR      67  60  78 S8        30.05F
6HR MIN TEMP:  64; 6HR MAX TEMP:  74;

SPARTA         FAIR      57  55  94 CALM      30.08S
VIROQUA        FAIR      61  59  94 S6        30.09S
6HR MIN TEMP:  61; 6HR MAX TEMP:  69;

BOSCOBEL       FAIR      61  59  93 CALM      30.09R
6HR MIN TEMP:  59; 6HR MAX TEMP:  73;

PRAIRIE DU CHI FAIR      65  58  77 E6        30.07F
6HR MIN TEMP:  65; 6HR MAX TEMP:  71;

PLATTEVILLE    FAIR      62  59  90 SE6       30.10S
6HR MIN TEMP:  62; 6HR MAX TEMP:  67;

$$

WIZ056-057-062-063-064-067-068-280700-
SOUTH CENTRAL WISCONSIN

CITY           SKY/WX    TMP DP  RH WIND       PRES   REMARKS
REEDSBURG      FAIR      59  57  94 CALM      30.10R
6HR MIN TEMP:  59; 6HR MAX TEMP:  71;

BARABOO/DELLS  FAIR      59  55  88 S6        30.10R
6HR MIN TEMP:  59; 6HR MAX TEMP:  70;

LONE ROCK      FAIR      59  56  89 NE3       30.11R
6HR MIN TEMP:  57; 6HR MAX TEMP:  71;

MINERAL POINT  FAIR      61  59  94 SE6       30.10S
MADISON        FAIR      62  56  80 S8        30.11R
6HR MIN TEMP:  62; 6HR MAX TEMP:  71;

MIDDLETON      FAIR      62  56  80 S5        30.11S
6HR MIN TEMP:  62; 6HR MAX TEMP:  71;

WATERTOWN      FAIR      57  55  91 CALM      30.12R
6HR MIN TEMP:  57; 6HR MAX TEMP:  69;

MONROE         FAIR      61  55  82 S8        30.12S
JANESVILLE     FAIR      55  54  94 SE3       30.11F
$$

WIZ051-052-058>065-066-070>072-280700-
SOUTHEAST WISCONSIN

CITY           SKY/WX    TMP DP  RH WIND       PRES   REMARKS
MILWAUKEE      FAIR      58  52  80 SW3       30.12F
6HR MIN TEMP:  57; 6HR MAX TEMP:  66;

WAUKESHA       FAIR      55  52  88 S5        30.15R
MILWAUKEE/TIMM FAIR      59  52  77 S5        30.13F
RACINE         FAIR      58  54  86 S3        30.14F
6HR MIN TEMP:  57; 6HR MAX TEMP:  65;

BURLINGTON     FAIR      49  49  98 CALM      30.14S FOG
6HR MIN TEMP:  49; 6HR MAX TEMP:  65;

KENOSHA        FAIR      54  51  90 S3        30.13F
6HR MIN TEMP:  52; 6HR MAX TEMP:  66;

FOND DU LAC    MOCLDY    59  55  87 S6        30.12R
6HR MIN TEMP:  59; 6HR MAX TEMP:  69;

SHEBOYGAN      FAIR      54  52  93 CALM      30.12S
6HR MIN TEMP:  52; 6HR MAX TEMP:  63;

WEST BEND      FAIR      55  50  82 CALM      30.13R
JUNEAU         MOCLDY    57  53  87 S3        30.13R
6HR MIN TEMP:  57; 6HR MAX TEMP:  69;

$$

LSZ147-162-280700-
LAKE SUPERIOR

STATION/POSITION TIME  TEMP    WIND        PRES    WAVE
                       AIR SEA DIR/SP/G            HT/PER
                 (UTC) (F)     (DEG/KT/KT) (MB)    (FT/S)
W MID LAKE BUOY  0550   59 55  170/  8/  8 1015.2F   0
DEVILS ISLAND    0600   62     170/  3/  3 1015.2F
PORT WING        0500   57     280/  2/  3 1015.9
SAXON HARBOR     0500   62     200/  1/  4 1015.2
$$

LMZ867-665-643>646-280700-
LAKE MICHIGAN

STATION/POSITION TIME  TEMP    WIND        PRES    WAVE
                       AIR SEA DIR/SP/G            HT/PER
                 (UTC) (F)     (DEG/KT/KT) (MB)    (FT/S)
CHAMBERS ISLAND  0500   62     160/  4/  8 1018.3F


USA.gov is the U.S. government's official web portal to all federal, state and local government web resources and services.